{"data":{"norad_id":60299,"epoch":"2026-05-24T22:56:43.965024Z","epoch_age_seconds":68955,"freshness":"FRESH","line1":"1 60299U 24132X   26144.95606441  .00000721  00000+0  36483-4 0  9997","line2":"2 60299  53.1627  29.7352 0001307  84.0885 276.0264 15.30192440103633","mean_motion":15.3019244,"eccentricity":0.0001307,"inclination_deg":53.1627,"raan_deg":29.7352,"arg_perigee_deg":84.0885,"mean_anomaly_deg":276.0264,"bstar":3.6483e-5,"rev_number":10363,"period_min":94.105810639085,"perigee_km":474.34190624381,"apogee_km":476.13337837531,"semimajor_km":6853.3746423096,"source":"CELESTRAK","updated_at":"2026-05-25T13:38:19.226432Z"}}